EW9078 Weather Reports


time (UTC)temp
F
wind
direction
speed
knots
gust
knots
rain 1hr
in
rain 24hr
in
rain mn
in
humidity
%
barometer
mb
20260509053504 83 299 1.7 4.3 0.00 0.00 0.00 13 994.2
20260509053004 83 302 1.7 4.3 0.00 0.00 0.00 13 994.2
20260509052504 82 298 0.9 3.5 0.00 0.00 0.00 14 994.2
20260509052004 82 289 0.0 3.5 0.00 0.00 0.00 15 994.4
20260509051505 83 211 0.0 2.6 0.00 0.00 0.00 15 994.4
20260509051004 83 207 0.0 2.6 0.00 0.00 0.00 16 994.4
20260509050505 83 179 0.0 2.6 0.00 0.00 0.00 16 994.4
20260509050004 84 178 0.0 2.6 0.00 0.00 0.00 15 994.4
20260509045504 85 0 0.0 0.0 0.00 0.00 0.00 13 994.4
20260509044004 85 301 0.9 7.8 0.00 0.00 0.00 11 994.1
20260509043504 86 297 1.7 9.6 0.00 0.00 0.00 11 994.0
20260509043005 86 293 2.6 13.9 0.00 0.00 0.00 11 994.0
20260509042504 86 293 2.6 13.9 0.00 0.00 0.00 11 994.0
20260509042004 86 302 4.3 20.9 0.00 0.00 0.00 11 993.8
20260509041504 87 303 5.2 20.9 0.00 0.00 0.00 11 993.6
20260509041005 87 298 4.3 14.8 0.00 0.00 0.00 11 993.6
20260509040504 87 300 6.1 16.5 0.00 0.00 0.00 11 993.5
20260509040005 87 305 7.8 20.0 0.00 0.00 0.00 11 993.5
20260509035505 87 308 7.0 20.0 0.00 0.00 0.00 11 993.3
20260509034504 87 310 6.1 19.1 0.00 0.00 0.00 11 993.0
20260509034004 87 304 7.0 19.1 0.00 0.00 0.00 11 992.9
20260509033504 87 296 4.3 18.2 0.00 0.00 0.00 11 992.9
20260509033004 87 305 3.5 17.4 0.00 0.00 0.00 11 992.9
20260509032504 88 309 4.3 16.5 0.00 0.00 0.00 12 992.8
20260509032004 88 298 5.2 18.2 0.00 0.00 0.00 11 992.8
20260509031506 88 304 5.2 18.2 0.00 0.00 0.00 11 992.7
20260509031005 88 308 6.1 21.7 0.00 0.00 0.00 11 992.5
20260509030004 88 311 6.1 20.9 0.00 0.00 0.00 11 992.4
20260509025505 88 302 7.0 20.9 0.00 0.00 0.00 11 992.4
20260509025004 89 316 6.1 20.0 0.00 0.00 0.00 12 992.4
20260509024005 89 319 7.0 21.7 0.00 0.00 0.00 12 992.3
20260509023504 89 308 6.1 19.1 0.00 0.00 0.00 12 992.1
20260509023005 89 306 7.0 18.2 0.00 0.00 0.00 12 992.1
20260509022004 89 306 7.0 20.9 0.00 0.00 0.00 12 992.0
20260509021004 89 300 7.8 22.6 0.00 0.00 0.00 12 991.9
20260509020504 89 300 8.7 21.7 0.00 0.00 0.00 12 991.9
20260509020005 89 305 8.7 24.3 0.00 0.00 0.00 12 991.9
20260509015505 89 307 8.7 24.3 0.00 0.00 0.00 12 991.9
20260509015004 89 311 7.8 20.0 0.00 0.00 0.00 12 991.9
20260509014504 90 313 7.0 23.5 0.00 0.00 0.00 12 991.9
20260509013504 90 297 6.1 20.9 0.00 0.00 0.00 12 991.9
20260509012504 91 322 6.1 20.0 0.00 0.00 0.00 12 991.9
20260509011505 91 291 6.1 21.7 0.00 0.00 0.00 12 991.9
20260509011005 91 288 6.1 21.7 0.00 0.00 0.00 12 991.9
20260509010504 92 270 5.2 20.9 0.00 0.00 0.00 11 991.9
20260509010004 92 266 4.3 19.1 0.00 0.00 0.00 11 991.9
20260509005004 93 280 4.3 20.9 0.00 0.00 0.00 11 991.9
20260509004504 93 283 3.5 19.1 0.00 0.00 0.00 11 991.9
20260509002504 95 298 5.2 14.8 0.00 0.00 0.00 11 991.9
20260509001504 95 300 6.1 20.0 0.00 0.00 0.00 10 991.6
20260509001004 96 313 7.0 20.9 0.00 0.00 0.00 10 991.7
20260509000504 96 308 7.0 20.9 0.00 0.00 0.00 10 991.6
20260509000005 96 305 7.8 17.4 0.00 0.00 0.00 9 991.7
20260508235504 97 302 5.2 17.4 0.00 0.00 0.00 9 991.8
20260508235004 97 299 3.5 18.2 0.00 0.00 0.00 9 991.8
20260508234504 97 298 4.3 18.2 0.00 0.00 0.00 9 991.9
20260508234004 97 294 4.3 19.1 0.00 0.00 0.00 9 991.9
20260508233504 97 301 4.3 19.1 0.00 0.00 0.00 9 991.9
20260508233004 97 299 4.3 15.6 0.00 0.00 0.00 9 991.9
20260508232504 97 303 5.2 21.7 0.00 0.00 0.00 9 991.9
20260508232004 97 304 4.3 21.7 0.00 0.00 0.00 9 991.9
20260508231504 98 284 1.7 11.3 0.00 0.00 0.00 9 992.0
20260508230505 97 282 2.6 12.2 0.00 0.00 0.00 9 992.1
20260508230004 97 288 2.6 11.3 0.00 0.00 0.00 9 992.2
20260508225504 97 271 1.7 11.3 0.00 0.00 0.00 9 992.2
20260508224504 97 261 3.5 13.9 0.00 0.00 0.00 9 992.4
20260508224005 97 260 2.6 12.2 0.00 0.00 0.00 9 992.4
20260508223505 97 251 1.7 11.3 0.00 0.00 0.00 9 992.5
20260508222504 97 280 2.6 18.2 0.00 0.00 0.00 9 992.6
20260508222004 97 290 1.7 11.3 0.00 0.00 0.00 9 992.6
20260508221504 97 277 2.6 18.2 0.00 0.00 0.00 9 992.8
20260508221004 96 261 3.5 18.2 0.00 0.00 0.00 10 992.8
20260508220504 96 260 3.5 14.8 0.00 0.00 0.00 10 992.8
20260508220004 96 273 3.5 14.8 0.00 0.00 0.00 10 993.0
20260508215504 96 274 3.5 14.8 0.00 0.00 0.00 10 993.0
20260508215005 96 261 2.6 14.8 0.00 0.00 0.00 10 993.0
20260508214504 97 239 1.7 10.4 0.00 0.00 0.00 10 993.1
20260508214004 96 242 2.6 13.9 0.00 0.00 0.00 10 993.3
20260508213505 96 229 3.5 15.6 0.00 0.00 0.00 10 993.5
20260508213004 96 246 3.5 15.6 0.00 0.00 0.00 10 993.5
20260508212504 96 278 2.6 12.2 0.00 0.00 0.00 10 993.6
20260508212004 96 255 1.7 9.6 0.00 0.00 0.00 10 993.7
20260508211504 95 261 3.5 16.5 0.00 0.00 0.00 11 993.9
20260508211004 95 248 5.2 17.4 0.00 0.00 0.00 11 993.9
20260508210504 95 249 4.3 17.4 0.00 0.00 0.00 10 993.9
20260508210004 96 274 3.5 15.6 0.00 0.00 0.00 10 994.0
20260508205504 96 294 4.3 13.9 0.00 0.00 0.00 10 994.1
20260508205004 96 302 4.3 13.9 0.00 0.00 0.00 11 994.1
20260508204004 95 279 3.5 13.0 0.00 0.00 0.00 11 994.2
20260508203004 95 276 2.6 13.0 0.00 0.00 0.00 11 994.5
20260508202504 95 296 4.3 13.9 0.00 0.00 0.00 11 994.6
20260508202004 94 302 5.2 15.6 0.00 0.00 0.00 11 994.7
20260508201504 95 296 4.3 15.6 0.00 0.00 0.00 11 994.7
20260508200504 95 302 4.3 14.8 0.00 0.00 0.00 11 995.1
20260508200004 95 298 2.6 14.8 0.00 0.00 0.00 12 995.1
20260508195504 95 289 3.5 14.8 0.00 0.00 0.00 12 995.1
20260508195005 94 290 4.3 12.2 0.00 0.00 0.00 12 995.3
20260508194504 94 294 4.3 14.8 0.00 0.00 0.00 12 995.5
20260508194005 94 297 4.3 14.8 0.00 0.00 0.00 12 995.6
20260508193504 94 297 4.3 14.8 0.00 0.00 0.00 12 995.6
20260508193004 94 290 2.6 10.4 0.00 0.00 0.00 12 995.6
20260508192504 93 274 2.6 12.2 0.00 0.00 0.00 13 995.6
20260508192004 93 282 3.5 12.2 0.00 0.00 0.00 13 995.7
20260508191504 92 297 3.5 15.6 0.00 0.00 0.00 13 995.9
20260508191004 93 303 5.2 15.6 0.00 0.00 0.00 13 996.0
20260508190504 93 298 3.5 12.2 0.00 0.00 0.00 13 996.1
20260508190004 93 288 2.6 12.2 0.00 0.00 0.00 13 996.1
20260508185504 93 294 3.5 12.2 0.00 0.00 0.00 13 996.2
20260508184504 92 242 1.7 8.7 0.00 0.00 0.00 14 996.2
20260508183004 90 296 2.6 7.8 0.00 0.00 0.00 14 996.5
20260508182504 90 325 2.6 9.6 0.00 0.00 0.00 14 996.6
20260508182004 90 321 3.5 9.6 0.00 0.00 0.00 15 996.6
20260508181504 90 289 2.6 7.8 0.00 0.00 0.00 15 996.6
20260508181004 90 222 1.7 8.7 0.00 0.00 0.00 14 996.7
20260508180504 90 208 2.6 9.6 0.00 0.00 0.00 14 996.7
20260508180004 91 206 1.7 9.6 0.00 0.00 0.00 14 996.7
20260508175504 90 281 0.9 7.8 0.00 0.00 0.00 14 996.8
20260508175004 90 280 0.9 7.8 0.00 0.00 0.00 14 996.9
20260508174504 89 227 0.9 9.6 0.00 0.00 0.00 14 996.9
20260508174004 88 221 1.7 9.6 0.00 0.00 0.00 15 997.1
20260508173504 87 133 1.7 5.2 0.00 0.00 0.00 15 997.1
20260508173004 87 142 1.7 5.2 0.00 0.00 0.00 15 997.1
20260508172505 86 138 1.7 5.2 0.00 0.00 0.00 15 997.2
20260508172004 85 118 1.7 5.2 0.00 0.00 0.00 16 997.1
20260508170504 84 128 1.7 6.1 0.00 0.00 0.00 16 997.3
20260508170004 83 95 1.7 4.3 0.00 0.00 0.00 17 997.3
20260508165505 83 80 2.6 5.2 0.00 0.00 0.00 17 997.4
20260508165004 83 66 1.7 5.2 0.00 0.00 0.00 17 997.5
20260508163504 81 63 0.9 4.3 0.00 0.00 0.00 18 997.7
20260508163004 80 37 0.0 2.6 0.00 0.00 0.00 18 997.7
20260508162504 80 34 0.9 2.6 0.00 0.00 0.00 18 997.7
20260508162004 79 62 0.9 5.2 0.00 0.00 0.00 19 997.7
20260508161504 79 68 1.7 6.1 0.00 0.00 0.00 19 997.7
20260508161004 78 80 1.7 6.1 0.00 0.00 0.00 19 997.7
20260508160505 78 77 1.7 5.2 0.00 0.00 0.00 19 997.8
20260508155504 78 62 0.9 4.3 0.00 0.00 0.00 19 997.7
20260508155004 77 38 0.0 3.5 0.00 0.00 0.00 19 997.7
20260508154504 76 58 0.0 2.6 0.00 0.00 0.00 19 997.7
20260508153503 75 47 0.9 4.3 0.00 0.00 0.00 20 997.8
20260508153004 75 42 0.9 4.3 0.00 0.00 0.00 21 997.8
20260508152504 74 56 0.9 4.3 0.00 0.00 0.00 21 998.0
20260508152004 73 46 0.9 4.3 0.00 0.00 0.00 22 998.0
20260508151505 73 46 0.9 4.3 0.00 0.00 0.00 22 998.1
20260508151004 72 71 1.7 4.3 0.00 0.00 0.00 23 998.1
20260508150005 71 60 1.7 5.2 0.00 0.00 0.00 24 998.1
20260508145504 71 55 1.7 5.2 0.00 0.00 0.00 24 998.0
20260508145004 70 53 1.7 5.2 0.00 0.00 0.00 24 997.9
20260508144504 70 51 2.6 5.2 0.00 0.00 0.00 25 998.0
20260508144004 69 42 2.6 5.2 0.00 0.00 0.00 25 998.0
20260508143504 69 35 1.7 5.2 0.00 0.00 0.00 26 998.1
20260508143004 68 35 0.0 4.3 0.00 0.00 0.00 26 998.1
20260508142504 68 49 0.0 3.5 0.00 0.00 0.00 27 998.1
20260508142004 68 52 0.9 4.3 0.00 0.00 0.00 28 998.1
20260508141004 68 56 2.6 5.2 0.00 0.00 0.00 28 998.1
20260508140504 68 51 1.7 5.2 0.00 0.00 0.00 28 998.0
20260508140005 68 39 0.9 4.3 0.00 0.00 0.00 29 997.9
20260508135504 68 0 0.0 0.0 0.00 0.00 0.00 30 997.8
20260508135003 68 24 0.0 2.6 0.00 0.00 0.00 30 997.7
20260508134503 68 24 0.0 2.6 0.00 0.00 0.00 31 997.6
20260508133504 68 347 0.9 3.5 0.00 0.00 0.00 31 997.5
20260508133004 67 347 0.9 3.5 0.00 0.00 0.00 31 997.5
20260508132504 67 26 0.0 0.9 0.00 0.00 0.00 32 997.4
20260508131003 66 0 0.0 0.0 0.00 0.00 0.00 33 997.3
20260508130503 66 0 0.0 0.0 0.00 0.00 0.00 34 997.2
20260508130005 65 0 0.0 0.0 0.00 0.00 0.00 35 997.2
20260508125004 65 0 0.0 0.0 0.00 0.00 0.00 35 997.0
20260508124503 65 0 0.0 0.0 0.00 0.00 0.00 35 996.9
20260508124003 65 0 0.0 0.0 0.00 0.00 0.00 35 996.7
20260508123504 65 0 0.0 0.0 0.00 0.00 0.00 36 996.7
20260508123004 64 0 0.0 0.0 0.00 0.00 0.00 36 996.7
20260508122504 64 0 0.0 0.0 0.00 0.00 0.00 36 996.7
20260508122005 64 0 0.0 0.0 0.00 0.00 0.00 35 996.6
20260508121504 64 0 0.0 0.0 0.00 0.00 0.00 35 996.7
20260508121003 64 0 0.0 0.0 0.00 0.00 0.00 35 996.7
20260508120504 64 358 0.9 4.3 0.00 0.00 0.00 35 996.7
20260508120004 63 1 0.9 4.3 0.00 0.00 0.00 35 996.8
20260508115503 63 4 0.0 4.3 0.00 0.00 0.00 35 996.8
20260508115004 63 349 0.0 1.7 0.00 0.00 0.00 35 997.0
20260508114505 63 8 0.9 3.5 0.00 0.00 0.00 35 997.0
20260508113004 63 4 0.9 5.2 0.00 0.00 0.00 36 997.1
20260508112004 62 19 0.0 2.6 0.00 0.00 0.00 36 997.1
20260508111504 62 12 0.9 3.5 0.00 0.00 0.00 37 997.2
20260508111004 62 15 0.9 3.5 0.00 0.00 0.00 37 997.1
20260508110004 62 20 0.0 1.7 0.00 0.00 0.00 38 996.8
20260508105503 62 20 0.0 2.6 0.00 0.00 0.00 38 996.7
20260508105003 62 20 0.9 2.6 0.00 0.00 0.00 38 996.8
20260508104504 63 21 0.0 1.7 0.00 0.00 0.00 37 996.8
20260508104003 63 20 0.0 1.7 0.00 0.00 0.00 36 996.7
20260508103004 64 0 0.0 0.0 0.00 0.00 0.00 36 996.9
20260508102504 64 0 0.0 0.0 0.00 0.00 0.00 35 996.8
20260508102004 64 0 0.0 0.0 0.00 0.00 0.00 35 996.7
20260508101504 65 0 0.0 0.0 0.00 0.00 0.00 35 996.7
20260508101003 65 0 0.0 0.0 0.00 0.00 0.00 35 996.6
20260508100504 65 0 0.0 0.0 0.00 0.00 0.00 35 996.6
20260508100004 65 0 0.0 0.0 0.00 0.00 0.00 34 996.6
20260508095504 65 0 0.0 0.0 0.00 0.00 0.00 33 996.5
20260508095004 66 0 0.0 0.0 0.00 0.00 0.00 34 996.4
20260508094504 66 0 0.0 0.0 0.00 0.00 0.00 34 996.2
20260508094004 66 0 0.0 0.0 0.00 0.00 0.00 33 996.3
20260508093504 66 0 0.0 0.0 0.00 0.00 0.00 32 996.4
20260508093004 67 0 0.0 0.0 0.00 0.00 0.00 32 996.4
20260508092005 67 0 0.0 0.0 0.00 0.00 0.00 31 996.5
20260508091505 68 0 0.0 0.0 0.00 0.00 0.00 31 996.6
20260508091004 68 0 0.0 0.0 0.00 0.00 0.00 31 996.6
20260508090505 68 0 0.0 0.0 0.00 0.00 0.00 31 996.5
20260508090006 68 0 0.0 0.0 0.00 0.00 0.00 31 996.5
20260508085505 68 0 0.0 0.0 0.00 0.00 0.00 31 996.6
20260508084505 68 0 0.0 0.0 0.00 0.00 0.00 31 996.6
20260508084005 68 0 0.0 0.0 0.00 0.00 0.00 31 996.7
20260508083505 68 0 0.0 0.0 0.00 0.00 0.00 31 996.8
20260508083005 68 0 0.0 0.0 0.00 0.00 0.00 31 996.9
20260508082505 68 0 0.0 0.0 0.00 0.00 0.00 30 996.9
20260508082005 69 0 0.0 0.0 0.00 0.00 0.00 30 997.0
20260508081505 69 0 0.0 0.0 0.00 0.00 0.00 30 997.1
20260508081005 69 0 0.0 0.0 0.00 0.00 0.00 30 997.1
20260508080505 70 0 0.0 0.0 0.00 0.00 0.00 30 997.1
20260508080005 70 0 0.0 0.0 0.00 0.00 0.00 30 997.1
20260508075505 70 0 0.0 0.0 0.00 0.00 0.00 30 997.1
20260508075004 70 0 0.0 0.0 0.00 0.00 0.00 29 997.1
20260508074005 71 0 0.0 0.0 0.00 0.00 0.00 29 997.2
20260508073505 71 0 0.0 0.0 0.00 0.00 0.00 28 997.2
20260508073005 71 0 0.0 0.0 0.00 0.00 0.00 27 997.2
20260508072005 72 0 0.0 0.0 0.00 0.00 0.00 28 997.2
20260508071505 72 61 0.0 3.5 0.00 0.00 0.00 28 997.2
20260508071005 72 95 0.9 4.3 0.00 0.00 0.00 27 997.2
20260508070505 72 134 1.7 6.1 0.00 0.00 0.00 28 997.2
20260508070006 72 235 1.7 9.6 0.00 0.00 0.00 27 997.1
20260508065505 72 296 2.6 13.9 0.00 0.00 0.00 27 997.0
20260508065004 72 299 4.3 14.8 0.00 0.00 0.00 27 996.8
20260508064504 72 310 6.1 14.8 0.00 0.00 0.00 27 996.7
20260508064005 73 308 5.2 14.8 0.00 0.00 0.00 27 996.7
20260508063505 74 308 1.7 12.2 0.00 0.00 0.00 26 996.8
20260508063005 74 36 0.0 3.5 0.00 0.00 0.00 25 996.8
20260508062004 74 300 3.5 14.8 0.00 0.00 0.00 25 996.6
20260508061505 74 301 6.1 14.8 0.00 0.00 0.00 25 996.6
20260508061005 74 306 8.7 20.0 0.00 0.00 0.00 26 996.7
20260508060505 74 306 7.8 20.0 0.00 0.00 0.00 25 996.7
20260508060005 74 304 6.1 19.1 0.00 0.00 0.00 25 996.8
20260508055505 74 304 3.5 19.1 0.00 0.00 0.00 24 996.7
20260508054504 74 0 0.0 0.0 0.00 0.00 0.00 24 997.0
20260508054004 74 0 0.0 0.0 0.00 0.00 0.00 24 997.1